Погода в Плотыче

Украина / Тернопольская область     49°29′09″N   25°17′47″E
темп.,
°C
ветер,
м/с
пор.,
м/с
влажн.,
%
обл.,
%
осадки,
мм/ч
давл.,
гПа
погр.,
м
20 июня, вс
вс2000:00+16юв22927 0.0 101819
03:00+15всв229110 0.0 101711
06:00+15ссв229294 0.0 101624
09:00+20всв4686100 0.0 1016514
12:00+22всв357897 0.1 1015744
15:00+23всв5779100 2.6 1014898
18:00+23в59826 2.6 10131067
21:00+19в499216 3.0 1013289
21 июня, пн
пн2100:00+17вюв389646 0.0 1013190
03:00+16вюв349721 0.0 101283
06:00+16в36979 0.0 1012126
09:00+20вюв468722 0.0 1012456
12:00+23юв457218 0.1 1012866
15:00+25юв456527 0.3 10111419
18:00+24юв557322 0.1 10101002
21:00+20юв37907 0.2 1011159
22 июня, вт
вт2200:00+18юв359391 0.0 101181
03:00+17вюв38945 0.0 1011129
06:00+16юв38940 0.0 1012165
09:00+21юв47790 0.0 1012382
12:00+25юв57673 0.0 10121076
15:00+26юв56630 0.0 10121314
18:00+26юв35695 0.0 10121173
21:00+22ю22840 0.0 101218
23 июня, ср
ср2300:00+19в229150 2.3 101313
03:00+19всв11922 2.8 101311
06:00+19вюв22930 0.0 101423
09:00+23ююв12830 0.0 1014268
12:00+26вюв226915 0.0 10151140
15:00+28в226029 0.1 10151457
18:00+27в326997 0.0 1015992
21:00+22в228562 0.6 101616
24 июня, чт
чт2400:00+20всв118065 0.2 101611
03:00+19ссв118496 0.2 101611
06:00+19ссв118750 0.0 101611
09:00+24всв2281100 0.0 1017279
12:00+26в1271100 0.1 1016935
15:00+28вюв2161100 0.2 10161553
18:00+28в326986 0.0 10151144
21:00+23ююв36861 0.0 1015110